Location: Palo Alto
(37.4420°N, 122.1420°W)
Time: 02:56:09
(UTC-08:00)

ISS - All Passes

Search period start: 18 December 2017 00:00
Search period end: 28 December 2017 00:00
Orbit: 402 x 406 km, 51.6° (Epoch: 18 December)

Date Brightness Start Highest point End Pass type
(mag) Time Alt. Az. Time Alt. Az. Time Alt. Az.
18 Dec - 09:08:42 10° S 09:11:27 25° SE 09:14:14 10° ENE daylight
18 Dec - 10:44:54 10° W 10:47:51 30° NNW 10:50:49 10° NNE daylight
18 Dec - 15:38:07 10° NNW 15:40:36 19° NNE 15:43:04 10° ENE daylight
18 Dec - 17:14:04 10° WNW 17:17:17 51° SW 17:20:27 10° SSE visible
19 Dec - 08:17:52 10° SSE 08:19:23 13° SE 08:20:54 10° E daylight
19 Dec - 09:52:17 10° WSW 09:55:31 55° NW 09:58:44 10° NE daylight
19 Dec - 11:31:15 10° NW 11:32:34 12° NNW 11:33:53 10° N daylight
19 Dec - 14:46:21 10° N 14:48:05 13° NNE 14:49:48 10° NE daylight
19 Dec - 16:21:45 10° NW 16:25:02 74° NE 16:28:19 10° SE daylight
20 Dec - 08:59:58 10° SW 09:03:14 71° SE 09:06:31 10° NE daylight
20 Dec - 10:37:48 10° WNW 10:40:01 17° NNW 10:42:14 10° NNE daylight
20 Dec - 15:29:36 10° NW 15:32:43 37° NE 15:35:48 10° ESE daylight
20 Dec - 17:06:34 10° W 17:08:59 19° SW 17:11:24 10° S daylight
21 Dec - 08:08:04 10° SSW 08:11:01 32° SE 08:14:00 10° ENE daylight
21 Dec - 09:44:44 10° W 09:47:31 25° NNW 09:50:20 10° NNE daylight
21 Dec - 14:37:36 10° NNW 14:40:17 22° NNE 14:42:57 10° E daylight
21 Dec - 16:13:45 10° WNW 16:16:51 39° SW 16:19:55 10° SSE daylight
22 Dec - 07:16:46 10° S 07:18:53 16° SE 07:21:01 10° E daylight
22 Dec - 08:51:57 10° WSW 08:55:06 43° NW 08:58:17 10° NE daylight
22 Dec - 10:31:28 10° NNW 10:32:16 11° NNW 10:33:04 10° N daylight
22 Dec - 13:45:43 10° NNW 13:47:45 15° NNE 13:49:47 10° ENE daylight
22 Dec - 15:21:19 10° NW 15:24:37 85° SW 15:27:53 10° SE daylight
23 Dec - 07:59:29 10° SW 08:02:46 89° NW 08:06:03 10° NE daylight
23 Dec - 09:37:42 10° WNW 09:39:39 15° NNW 09:41:35 10° NNE daylight
23 Dec - 12:54:10 10° N 12:55:08 11° NNE 12:56:07 10° NE daylight
23 Dec - 14:29:05 10° NW 14:32:16 47° NE 14:35:27 10° ESE daylight
23 Dec - 16:06:28 10° W 16:08:27 15° SW 16:10:25 10° SSW daylight
24 Dec - 07:07:24 10° SSW 07:10:30 42° SE 07:13:37 10° ENE daylight
24 Dec - 08:44:28 10° W 08:47:05 21° NNW 08:49:42 10° NNE daylight
24 Dec - 13:36:59 10° NNW 13:39:50 26° NNE 13:42:40 10° E daylight
24 Dec - 15:13:22 10° WNW 15:16:18 30° SW 15:19:13 10° SSE daylight
25 Dec - 06:15:48 10° S 06:18:18 20° SE 06:20:49 10° E visible
25 Dec - 07:51:33 10° WSW 07:54:36 35° NW 07:57:40 10° NE daylight
25 Dec - 12:45:01 10° NNW 12:47:18 17° NNE 12:49:34 10° ENE daylight
25 Dec - 14:20:47 10° NW 14:24:03 65° SW 14:27:18 10° SE daylight
26 Dec - 05:25:58 10° SE 05:26:10 10° SE 05:26:22 10° ESE visible
26 Dec - 06:58:56 10° WSW 07:02:12 69° NW 07:05:28 10° NE daylight
26 Dec - 08:37:32 10° NW 08:39:10 13° NNW 08:40:47 10° N daylight
26 Dec - 11:53:15 10° N 11:54:40 12° NNE 11:56:05 10° NE daylight
26 Dec - 13:28:27 10° NW 13:31:42 59° NE 13:34:57 10° ESE daylight
26 Dec - 15:06:31 10° WSW 15:07:47 12° SW 15:09:03 10° SSW daylight
27 Dec - 06:06:40 10° SW 06:09:51 55° SE 06:13:05 10° ENE visible
27 Dec - 07:44:08 10° WNW 07:46:33 19° NNW 07:48:58 10° NNE daylight
27 Dec - 12:36:16 10° NNW 12:39:16 31° NNE 12:42:15 10° E daylight
27 Dec - 14:12:55 10° WNW 14:15:37 24° SW 14:18:19 10° S daylight
